FW0790 Weather Reports


time (UTC)temp
C
wind
direction
speed
KPH
gust
KPH
rain 1hr
cm
rain 24hr
cm
rain mn
cm
humidity
%
barometer
mb
20260507034524 7 267 0.0 0.0 0.00 0.00 0.00 84 1007.6
20260507033023 7 310 0.0 0.0 0.00 0.00 0.00 84 1007.5
20260507031521 7 290 0.0 0.0 0.00 0.00 0.00 84 1007.5
20260507030027 7 271 0.0 0.0 0.00 0.00 0.00 84 1007.3
20260507024525 7 323 0.0 0.0 0.00 0.00 0.00 84 1007.3
20260507023018 7 284 0.0 0.0 0.00 0.00 0.00 85 1007.3
20260507021517 7 292 0.0 0.0 0.00 0.00 0.00 85 1007.2
20260507020015 7 311 0.0 0.0 0.00 0.00 0.00 85 1007.1
20260507014515 7 280 0.0 0.0 0.00 0.00 0.00 85 1007.0
20260507013015 7 292 0.0 0.0 0.00 0.00 0.00 85 1006.8
20260507011512 7 293 0.0 0.0 0.00 0.00 0.00 85 1006.7
20260507010012 7 288 0.0 0.0 0.00 0.00 0.00 85 1006.7
20260507004509 7 288 0.0 0.0 0.00 0.00 0.00 85 1006.7
20260507003008 7 308 0.0 0.0 0.00 0.00 0.00 86 1006.7
20260507001511 7 298 0.0 0.0 0.00 0.00 0.00 86 1006.7
20260507000007 8 300 0.0 0.0 0.00 0.00 0.00 86 1006.6
20260506234505 8 273 0.0 0.0 0.00 0.00 0.00 86 1006.6
20260506233010 8 292 0.0 0.0 0.00 0.00 0.00 86 1006.4
20260506231502 8 298 0.0 0.0 0.00 0.00 0.00 86 1006.3
20260506230005 8 304 0.0 0.0 0.00 0.00 0.00 86 1006.1
20260506224602 8 314 0.0 0.0 0.00 0.00 0.00 86 1006.1
20260506223100 8 321 0.0 0.0 0.00 0.00 0.00 86 1006.1
20260506221624 8 15 0.0 0.0 0.00 0.00 0.00 86 1006.0
20260506220127 8 15 0.0 0.0 0.00 0.00 0.00 87 1006.0
20260506214555 8 13 0.0 0.0 0.00 0.00 0.00 87 1005.9
20260506213108 8 13 0.0 0.0 0.00 0.00 0.00 87 1005.7
20260506211555 8 336 0.0 0.0 0.00 0.00 0.00 87 1005.6
20260506210057 8 360 0.0 0.0 0.00 0.00 0.00 87 1005.6
20260506204554 8 10 0.0 0.0 0.00 0.00 0.00 87 1005.5
20260506203049 8 329 0.0 0.0 0.00 0.00 0.00 87 1005.5
20260506201549 8 14 0.0 0.0 0.00 0.00 0.00 87 1005.4
20260506200044 9 13 0.0 0.0 0.00 0.00 0.00 87 1005.2
20260506194543 9 333 0.0 0.0 0.00 0.00 0.00 87 1005.0
20260506193039 9 355 0.0 0.0 0.00 0.00 0.00 87 1004.7
20260506191538 9 351 0.0 0.0 0.00 0.00 0.00 87 1004.4
20260506190035 10 327 0.0 0.0 0.00 0.00 0.00 87 1004.3
20260506184535 10 334 0.0 0.0 0.00 0.00 0.00 87 1004.3
20260506183032 10 333 0.0 0.0 0.00 0.00 0.00 87 1004.1
20260506181527 11 323 0.0 0.0 0.00 0.00 0.00 87 1003.9
20260506180031 11 305 0.0 0.0 0.00 0.00 0.00 86 1003.6
20260506174530 12 308 0.0 0.0 0.00 0.00 0.00 86 1003.1
20260506173026 12 272 0.0 0.0 0.00 0.00 0.00 86 1002.9
20260506171537 12 246 0.0 0.0 0.00 0.00 0.00 86 1002.8
20260506170024 12 222 0.0 0.0 0.00 0.00 0.00 86 1002.7
20260506164524 12 218 0.0 0.0 0.00 0.00 0.00 86 1002.7
20260506163023 12 216 0.0 0.0 0.00 0.00 0.00 86 1002.8
20260506161524 13 236 0.0 0.0 0.00 0.00 0.00 85 1002.8
20260506160025 13 227 0.0 0.0 0.00 0.00 0.00 84 1002.7
20260506154521 13 266 0.0 0.0 0.00 0.00 0.00 81 1002.7
20260506153020 14 232 0.0 0.0 0.00 0.00 0.00 78 1002.4
20260506151524 15 235 0.0 0.0 0.00 0.00 0.00 77 1002.4
20260506150020 15 259 0.0 0.0 0.00 0.00 0.00 76 1002.4
20260506144519 15 251 0.0 0.0 0.00 0.00 0.00 76 1002.4
20260506143020 15 234 0.0 0.0 0.00 0.00 0.00 76 1002.3
20260506141518 15 236 0.0 0.0 0.00 0.00 0.00 75 1002.3
20260506140025 15 227 0.0 0.0 0.00 0.00 0.00 74 1002.2
20260506134517 15 182 0.0 0.0 0.00 0.00 0.00 71 1002.3
20260506133016 15 217 0.0 0.0 0.00 0.00 0.00 72 1002.4
20260506131510 15 221 0.0 0.0 0.00 0.00 0.00 73 1002.4
20260506130010 15 191 0.0 0.0 0.00 0.00 0.00 73 1002.4
20260506124508 15 175 0.0 0.0 0.00 0.00 0.00 73 1002.3
20260506123008 15 222 0.0 0.0 0.00 0.00 0.00 74 1002.4
20260506121507 15 171 0.0 0.0 0.00 0.00 0.00 73 1002.4
20260506120007 14 202 0.0 0.0 0.00 0.00 0.00 74 1002.5
20260506114522 15 190 0.0 0.0 0.00 0.00 0.00 75 1002.3
20260506113006 15 236 0.0 0.0 0.00 0.00 0.00 73 1002.4
20260506111505 15 263 0.0 0.0 0.00 0.00 0.00 74 1002.4
20260506110005 15 194 0.0 0.0 0.00 0.00 0.00 71 1002.3
20260506104502 15 207 0.0 0.0 0.00 0.00 0.00 75 1002.3
20260506103002 15 192 0.0 0.0 0.00 0.00 0.00 77 1002.4
20260506101500 15 194 0.0 0.0 0.00 0.00 0.00 75 1002.4
20260506100114 14 170 0.0 0.0 0.00 0.00 0.00 78 1002.5
20260506094557 14 222 0.0 0.0 0.00 0.00 0.00 78 1002.4
20260506093058 15 193 0.0 0.0 0.00 0.00 0.00 80 1002.2
20260506091557 14 225 0.0 0.0 0.00 0.00 0.00 81 1002.1
20260506090053 14 205 0.0 0.0 0.00 0.00 0.00 83 1002.1
20260506084548 13 171 0.0 0.0 0.00 0.00 0.00 85 1002.1
20260506083046 13 196 0.0 0.0 0.00 0.00 0.00 87 1002.0
20260506081545 12 204 0.0 0.0 0.00 0.00 0.00 87 1002.0
20260506073040 12 245 0.0 0.0 0.00 0.00 0.00 87 1001.9
20260506071536 12 196 0.0 0.0 0.00 0.00 0.00 86 1002.0
20260506061532 11 196 0.0 0.0 0.00 0.00 0.00 86 1001.8
20260506044530 11 209 0.0 0.0 0.00 0.00 0.00 82 1001.8
20260506043022 11 205 0.0 0.0 0.00 0.00 0.00 82 1001.9
20260506041519 11 193 0.0 0.0 0.00 0.00 0.00 82 1001.8
20260506040019 11 193 0.0 0.0 0.00 0.00 0.00 82 1001.7